Location: Eckville
(52.3611°N, 114.3680°W)
Time: 04:51:27
(UTC+00:00)

ISS - Visible Passes

Search period start: 27 February 2024 00:00
Search period end: 08 March 2024 00:00
Orbit: 414 x 422 km, 51.6° (Epoch: 26 February)

Date Brightness Start Highest point End Pass type
(mag) Time Alt. Az. Time Alt. Az. Time Alt. Az.
27 Feb -0.8 11:18:49 16° E 11:18:49 16° E 11:19:35 10° E visible
27 Feb -3.8 12:51:45 37° W 12:52:58 81° S 12:56:21 10° E visible
28 Feb -3.2 12:05:42 57° ESE 12:05:42 57° ESE 12:08:30 10° E visible
28 Feb -3.5 13:38:38 11° W 13:41:48 57° SSW 13:45:08 10° ESE visible
29 Feb -0.9 11:19:38 18° E 11:19:38 18° E 11:20:35 10° E visible
29 Feb -3.7 12:52:33 32° W 12:53:56 69° S 12:57:18 10° ESE visible
01 Mar -3.4 12:06:27 61° ESE 12:06:27 61° ESE 12:09:22 10° E visible
01 Mar -2.8 13:39:26 10° W 13:42:33 35° SSW 13:45:40 10° SE visible
02 Mar -1.1 11:20:21 18° E 11:20:21 18° E 11:21:22 10° E visible
02 Mar -3.3 12:53:17 28° WSW 12:54:38 46° SSW 12:57:54 10° SE visible
03 Mar -3.2 12:07:11 50° SSE 12:07:11 50° SSE 12:09:58 10° ESE visible
03 Mar -2.0 13:40:27 10° W 13:42:59 19° SW 13:45:28 10° SSE visible
04 Mar -1.1 11:21:08 16° ESE 11:21:08 16° ESE 11:21:57 10° ESE visible
04 Mar -2.5 12:54:03 23° WSW 12:55:02 27° SSW 12:57:56 10° SSE visible
05 Mar -2.4 12:08:02 28° SSE 12:08:02 28° SSE 12:10:09 10° SE visible
06 Mar -0.7 11:22:05 11° SE 11:22:05 11° SE 11:22:11 10° SE visible
06 Mar -1.7 12:55:02 14° SW 12:55:06 14° SW 12:56:58 10° S visible
07 Mar -1.2 12:09:11 12° S 12:09:11 12° S 12:09:37 10° SSE visible
